Flag for India Weather past 2 weeks in Faridkot, Punjab, India

Now
99 °F

Passing clouds.


Feels Like: 97 °F
Forecast: 80 / 108 °F
Wind: 13 mph from North

Location: Lahore Airport

Current Time: May 22, 2015 at 10:18:32 PM

Latest Report: May 22, 2015 at 9:25 PM


Visibility: 2 mi

Pressure: 29.53 "Hg

Humidity: 24%

Dew point: 55 °F

Location of FaridkotLocation

Historic Weather in Faridkot — Graph

°F

Faridkot temperature yesterday

Maximum temperature yesterday: 109 °F (at 3:25 PM)
Minimum temperature yesterday: 81 °F (at 5:28 AM)
Average temperature yesterday: 98 °F

Past Weeks' High & Low Weather Summary

 TemperatureHumidityPressure
High109 °F (May 8, 3:25 PM)83% (May 11, 9:55 PM)29.89 "Hg (May 11, 9:55 PM)
Low70 °F (May 13, 5:25 AM)12% (May 20, 4:30 PM)29.47 "Hg (May 22, 4:25 PM)
Average90 °F40%29.67 "Hg
* Reported May 7 8:55 PM — May 22 9:25 PM, Faridkot, Weather by CustomWeather, © 2015

Note: Actual official high and low records may vary slightly from our data, if they occured in-between our weather recording intervals... More about our weather records

Advertising

Faridkot weather history for previous 24 hours

 ConditionsComfort  
Time TempWeatherWind HumidityBarometerVisibility
9:25 PM
Fri, May 22
99 °FPassing clouds.13 mph24%29.53 "Hg2 mi
8:55 PM100 °FHaze.7 mph25%29.50 "Hg2 mi
8:25 PM100 °FHaze.3 mph25%29.50 "Hg2 mi
7:55 PM102 °FHaze.3 mph21%29.47 "Hg2 mi
7:25 PM102 °FHaze.No wind20%29.47 "Hg2 mi
6:55 PM104 °FHaze.3 mph19%29.47 "Hg3 mi
6:25 PM106 °FHaze.3 mph26%29.47 "Hg3 mi
5:55 PM106 °FHaze.3 mph17%29.47 "Hg3 mi
5:25 PM108 °FHaze.6 mph16%29.47 "Hg3 mi
4:55 PM109 °FClear.5 mph13%29.47 "Hg4 mi
4:25 PM109 °FClear.6 mph13%29.47 "Hg4 mi
3:55 PM109 °FClear.5 mph14%29.50 "Hg4 mi
3:25 PM109 °FClear.5 mph14%29.50 "Hg4 mi
2:55 PM109 °FHaze.5 mph14%29.50 "Hg3 mi
2:25 PM109 °FHaze.5 mph14%29.59 "Hg3 mi
1:55 PM108 °FHaze.3 mph14%29.53 "Hg3 mi
1:25 PM108 °FHaze.5 mph14%29.56 "Hg3 mi
12:55 PM108 °FHaze.7 mph14%29.56 "Hg2 mi
12:25 PM106 °FHaze.8 mph14%29.56 "Hg2 mi
11:55 AM104 °FHaze.7 mph16%29.56 "Hg2 mi
11:25 AM102 °FHaze.3 mph17%29.59 "Hg2 mi
10:55 AM99 °FHaze.No wind19%29.59 "Hg2 mi
10:25 AM99 °FHaze.No wind19%29.59 "Hg2 mi
9:55 AM97 °FHaze.No wind23%29.59 "Hg2 mi
9:25 AM95 °FHaze.5 mph25%29.59 "Hg2 mi
8:55 AM93 °FHaze.No wind28%29.59 "Hg2 mi
8:30 AM91 °FHaze.No wind30%29.59 "Hg2 mi
8:00 AM88 °FHaze.No wind40%29.59 "Hg2 mi
7:30 AM86 °FHaze.No wind43%29.59 "Hg2 mi
7:00 AM86 °FHaze.No wind46%29.59 "Hg2 mi
6:30 AM84 °FHaze.5 mph48%29.56 "Hg2 mi
5:00 AM84 °FHaze.No wind45%29.56 "Hg2 mi
4:30 AM84 °FHaze.No wind45%29.56 "Hg2 mi
4:00 AM84 °FHaze.5 mph45%29.56 "Hg2 mi
3:30 AM86 °FHaze.No wind43%29.56 "Hg2 mi
3:00 AM86 °FHaze.3 mph43%29.56 "Hg2 mi
2:30 AM86 °FHaze.No wind43%29.56 "Hg2 mi
2:00 AM88 °FHaze.No wind40%29.56 "Hg2 mi
1:30 AM88 °FHaze.3 mph40%29.56 "Hg2 mi
1:00 AM90 °FHaze.No wind38%29.56 "Hg2 mi
12:30 AM90 °FHaze.No wind38%29.56 "Hg2 mi
12:00 AM91 °FHaze.No wind36%29.59 "Hg2 mi
11:30 PM
Thu, May 21
91 °FHaze.No wind36%29.59 "Hg2 mi
11:00 PM93 °FHaze.No wind32%29.59 "Hg2 mi
10:30 PM93 °FHaze.No wind32%29.59 "Hg2 mi
10:00 PM95 °FHaze.3 mph28%29.59 "Hg2 mi
Weather by CustomWeather, © 2015

See weather overviewHow to use our weather pages